[[{"header":{"parameterUnit":"m.s-1","parameterCategory":1,"la1":30.2991,"la2":30.254,"lo1":-89.0895,"lo2":-89.0444,"dy":0.0017,"dx":0.0017,"nx":28,"ny":28,"refTime":"2024-06-26T03:00:00:Z","depth":0,"parameterNumber":2,"parameterNumberName":"U-component_of_WINDS"},"data":[0,0,0,0,0,0,0,0,0,0,0,0,0,0,0,0,0,0,0,0,0,0,0,0,0,0,0,0,0,0,0,0,0,0,0,0,0,0,0,0,0,0,0,0,0,0,0,0,0,0,0,0,0,0,0,0,0,0,4.149,4.1493,0,4.175,4.1753,4.1756,4.1731,4.1727,4.1723,4.1719,4.1995,4.2006,4.2017,0,0,0,0,0,0,0,0,0,0,0,0,0,4.0979,4.0989,4.149,4.1493,4.1496,4.175,4.1753,4.1757,4.1732,4.1727,4.1722,4.1717,4.1991,4.2004,4.2018,0,0,0,0,0,0,0,0,0,0,0,0,0,4.1217,4.0992,4.1489,4.1514,4.1519,4.1749,4.1753,4.1758,4.1733,4.1727,4.1721,4.1715,4.1987,4.2003,4.202,4.2244,0,0,4.207,4.2078,0,0,0,0,0,0,0,0,4.1203,4.1235,4.1507,4.1513,4.1519,4.1702,4.1674,4.1921,4.1735,4.1652,4.1719,4.1712,4.1903,4.1926,4.1989,4.2257,4.2269,4.2072,4.2082,4.2089,4.2094,0,0,0,0,0,0,0,4.1187,4.1224,4.1593,4.1511,4.1518,4.1515,4.1542,4.1721,4.1809,4.1659,4.1658,4.1688,4.1905,4.1973,4.1995,4.2273,4.2071,4.2086,4.2097,4.2103,4.274,4.2747,0,0,0,0,0,0,4.1163,4.1211,4.1585,4.1601,4.1342,4.1529,4.1559,4.1649,4.1807,4.1825,4.1693,4.1686,4.1947,4.1975,4.2004,4.2279,4.2089,4.2105,4.2114,4.2733,4.2742,4.2749,0,0,0,0,0,0,4.1152,4.1197,4.1574,4.1406,4.1453,4.1544,4.1646,4.1658,4.1725,4.1832,4.1849,4.1746,4.1943,4.1981,4.2184,4.2288,4.2112,4.2127,4.2725,4.2736,4.2745,4.2828,0,0,0,0,0,0,4.1138,4.1193,4.1278,4.1407,4.1462,4.1748,4.1652,4.1667,4.1753,4.1746,4.1886,4.1904,4.1941,4.216,4.2201,4.2308,4.214,4.2716,4.273,4.2742,4.2817,4.284,4.286,0,0,0,0,0,4.112,4.1292,4.1282,4.1327,4.1569,4.1754,4.1785,4.1823,4.1761,4.1848,4.1917,4.1899,4.2269,4.2181,4.2227,4.234,4.271,4.2726,4.2741,4.2807,4.2835,4.2859,0,0,0,0,0,0,4.1176,4.131,4.13,4.1519,4.1625,4.1749,4.186,4.1852,4.198,4.1968,4.2012,4.2044,4.2249,4.2315,4.2214,4.2566,4.2482,4.2507,4.2516,4.2544,4.2565,4.2546,4.2154,0,0,0,0,0,4.1213,4.1348,4.1459,4.1642,4.1696,4.1768,4.185,4.187,4.1982,4.2028,4.2111,4.2224,4.2365,4.2458,4.2594,4.2825,4.2857,4.2926,4.2948,4.2965,4.2987,4.3116,4.3148,4.28,4.28,4.28,0,0,4.1293,4.1382,4.1466,4.1656,4.174,4.1882,4.1807,4.196,4.2067,4.2052,4.2248,4.2314,4.2442,4.266,4.2761,4.2722,4.309,4.2985,4.2998,4.3011,4.3135,4.3168,4.3197,4.2811,4.2809,4.2807,0,0,4.151,4.1591,4.1752,4.1838,4.1965,4.2012,4.205,4.2176,4.2218,4.2415,4.2407,4.2536,4.2778,4.287,4.2949,4.32,4.3189,4.3244,4.3358,4.3483,4.351,4.3535,4.3626,4.3658,4.3265,4.3265,4.3265,0,4.1594,4.1805,4.1837,4.1992,4.2076,4.2066,4.2231,4.2313,4.248,4.254,4.2492,4.2796,4.2882,4.3122,4.3183,4.3247,4.3294,4.3229,4.3503,4.3528,4.3551,4.3639,4.3673,4.3271,4.3271,4.327,4.3269,0,4.1902,4.2049,4.2165,4.2322,4.242,4.2579,4.2638,4.2733,4.2744,4.2797,4.2998,4.31,4.3257,4.3315,4.3329,4.3558,4.353,4.3492,4.3409,4.359,4.3673,4.3707,4.328,4.3277,4.3276,4.3274,0,0,4.2165,4.2336,4.2379,4.245,4.2589,4.2704,4.2864,4.3014,4.3095,4.3211,4.3347,4.3552,4.3518,4.3607,4.363,4.3739,4.3934,4.3689,4.3693,4.3732,4.4195,4.4223,4.4261,4.3926,4.3932,4.3938,4.4184,0,4.2398,4.2677,4.271,4.296,4.3096,4.3088,4.3227,4.3329,4.3382,4.3508,4.3568,4.3713,4.3656,4.371,4.3817,4.3887,4.4027,4.387,4.4057,4.4063,4.4026,4.4304,4.4335,4.4563,4.4217,4.4222,4.4226,0,4.2707,4.2827,4.3089,4.3209,4.3268,4.3392,4.3532,4.3652,4.3768,4.3799,4.3898,4.3907,4.4074,4.3982,4.4215,4.4107,4.4185,4.4231,4.4241,4.4261,4.4157,4.4334,4.4636,4.4671,4.4277,4.4273,4.427,0,4.2874,4.3102,4.3288,4.3349,4.3493,4.3581,4.3645,4.3754,4.3843,4.3966,4.4024,4.4167,4.4246,4.4357,4.4406,4.4334,4.4637,4.4548,4.467,4.4669,4.4736,4.4732,4.5057,4.4784,4.4783,4.4782,4.4782,0,4.3131,4.3293,4.3365,4.348,4.3661,4.3698,4.3877,4.3938,4.4036,4.4164,4.4166,4.4288,4.4343,4.4474,4.4514,4.4701,4.4737,4.4769,4.4778,4.477,4.4766,4.4824,4.481,4.4791,4.4789,4.4788,4.4786,0,4.335,4.3404,4.3606,4.3725,4.3758,4.3887,4.3989,4.4102,4.4153,4.4316,4.4357,4.4439,4.4592,4.4651,4.484,4.4866,4.5084,4.5079,4.5044,4.5047,4.5166,4.5155,4.5541,4.5595,4.5284,4.5287,4.5289,0,4.3511,4.3635,4.3765,4.385,4.3916,4.4053,4.4142,4.4184,4.4277,4.4418,4.4514,4.4666,4.4791,4.5038,4.5116,4.5261,4.5261,4.5386,4.5283,4.5271,4.5265,4.5258,4.5271,4.5406,4.5409,4.5412,4.5414,0,4.3793,4.3813,4.394,4.4076,4.4182,4.4292,4.4399,4.4469,4.4528,4.4633,4.4788,4.4884,4.5075,4.5228,4.5376,4.5446,4.5442,4.5445,4.5482,4.5476,4.5451,4.5468,4.5098,4.5437,4.5435,4.5433,4.5432,4.5431,4.399,4.4099,4.4207,4.4349,4.4433,4.4532,4.4644,4.4707,4.4837,4.4993,4.5011,4.5179,4.5292,4.549,4.5566,4.57,4.5667,4.5719,4.5733,4.5746,4.5755,4.5427,4.5727,4.5727,4.5726,4.5726,4.5725,0,4.4273,4.4341,4.4471,4.4619,4.4731,4.4712,4.4829,4.4925,4.5071,4.5176,4.5297,4.5476,4.5624,4.5713,4.5861,4.5952,4.5954,4.599,4.5985,4.6001,4.5775,4.5729,4.5986,4.5986,4.5986,4.5985,4.5985,4.5985,4.4434,4.4618,4.4651,4.4877,4.4945,4.5107,4.5176,4.5269,4.5352,4.5551,4.5672,4.5728,4.5827,4.5983,4.6118,4.6141,4.6197,4.6236,4.6256,4.6044,4.6017,4.5991,4.5949,4.6247,4.6248,4.6472,4.6474,4.6475]},{"header":{"parameterUnit":"m.s-1","parameterCategory":1,"la1":30.2991,"la2":30.254,"lo1":-89.0895,"lo2":-89.0444,"dy":0.0017,"dx":0.0017,"nx":28,"ny":28,"refTime":"2024-06-26T03:00:00:Z","depth":0,"parameterNumber":3,"parameterNumberName":"V-component_of_WINDS"},"data":[0,0,0,0,0,0,0,0,0,0,0,0,0,0,0,0,0,0,0,0,0,0,0,0,0,0,0,0,0,0,0,0,0,0,0,0,0,0,0,0,0,0,0,0,0,0,0,0,0,0,0,0,0,0,0,0,0,0,3.1608,3.161,0,3.1783,3.1785,3.1787,3.1759,3.1756,3.1753,3.175,3.1934,3.1942,3.195,0,0,0,0,0,0,0,0,0,0,0,0,0,3.1253,3.126,3.1608,3.161,3.1613,3.1783,3.1786,3.1788,3.176,3.1756,3.1752,3.1749,3.1932,3.1941,3.195,0,0,0,0,0,0,0,0,0,0,0,0,0,3.1416,3.1262,3.1608,3.1619,3.1622,3.1783,3.1786,3.1789,3.176,3.1756,3.1751,3.1747,3.1929,3.194,3.1952,3.2114,0,0,3.1987,3.1992,0,0,0,0,0,0,0,0,3.1407,3.1429,3.1615,3.1618,3.1622,3.1745,3.1728,3.1898,3.1762,3.1708,3.175,3.1745,3.1875,3.1891,3.1934,3.2123,3.2131,3.1988,3.1995,3.2,3.2003,0,0,0,0,0,0,0,3.1395,3.1421,3.1678,3.1618,3.1622,3.1616,3.1634,3.176,3.1815,3.1712,3.1711,3.1731,3.1876,3.1923,3.1938,3.2133,3.1988,3.1998,3.2005,3.201,3.2465,3.247,0,0,0,0,0,0,3.138,3.1412,3.1672,3.1683,3.1501,3.1626,3.1647,3.171,3.1814,3.1825,3.1735,3.1729,3.1905,3.1925,3.1945,3.2142,3.2,3.2011,3.2018,3.246,3.2466,3.2472,0,0,0,0,0,0,3.1373,3.1404,3.1665,3.1547,3.158,3.1637,3.1709,3.1716,3.1762,3.1831,3.1841,3.1772,3.1903,3.1928,3.2072,3.2148,3.2016,3.2027,3.2454,3.2462,3.2469,3.2539,0,0,0,0,0,0,3.1363,3.1401,3.1463,3.1549,3.1586,3.1789,3.1713,3.1722,3.1782,3.1776,3.1869,3.188,3.1901,3.2055,3.2084,3.2162,3.2036,3.2447,3.2457,3.2466,3.253,3.2548,3.2564,0,0,0,0,0,3.135,3.1477,3.1466,3.1498,3.1664,3.1793,3.1815,3.1835,3.1788,3.1851,3.1895,3.1877,3.2135,3.207,3.2102,3.2185,3.2443,3.2454,3.2466,3.2523,3.2545,3.2563,0,0,0,0,0,0,3.1401,3.1488,3.1478,3.1635,3.1707,3.1788,3.1868,3.1858,3.1946,3.1937,3.196,3.1981,3.2127,3.217,3.2096,3.2348,3.2282,3.2301,3.2315,3.2336,3.2353,3.234,3.2045,0,0,0,0,0,3.143,3.1526,3.1597,3.173,3.1766,3.1811,3.1868,3.1877,3.1953,3.1984,3.2038,3.2114,3.2211,3.2276,3.237,3.2535,3.2556,3.2608,3.2625,3.2638,3.2655,3.2746,3.2771,3.2509,3.2509,3.2509,0,0,3.1492,3.1551,3.1611,3.1741,3.1798,3.1898,3.1837,3.1946,3.2021,3.2001,3.214,3.2182,3.2268,3.2423,3.2494,3.2464,3.2731,3.2653,3.2663,3.2673,3.2761,3.2786,3.2808,3.2517,3.2516,3.2515,0,0,3.1656,3.171,3.1827,3.1884,3.1969,3.1998,3.2026,3.2109,3.2136,3.2275,3.2262,3.2352,3.252,3.2582,3.2635,3.2821,3.2808,3.2851,3.294,3.3028,3.3049,3.3068,3.3135,3.3159,3.2867,3.2867,3.2867,0,3.1723,3.1872,3.1888,3.1998,3.2057,3.204,3.2159,3.2215,3.2327,3.2369,3.2332,3.2542,3.2599,3.2769,3.2814,3.2857,3.2891,3.2842,3.3044,3.3063,3.3081,3.3146,3.3171,3.2872,3.2871,3.2871,3.2871,0,3.1951,3.2054,3.2138,3.2245,3.2313,3.2427,3.2461,3.2528,3.2531,3.2564,3.2706,3.2773,3.288,3.2921,3.2926,3.3092,3.307,3.3039,3.2974,3.311,3.3172,3.3196,3.2879,3.2877,3.2876,3.2875,0,0,3.2154,3.2267,3.2298,3.2347,3.2439,3.252,3.2633,3.2736,3.2794,3.2871,3.2968,3.311,3.3081,3.3141,3.3153,3.323,3.3375,3.319,3.3192,3.3223,3.3563,3.3588,3.3616,3.3365,3.337,3.3374,3.3557,0,3.2329,3.2527,3.2544,3.2724,3.282,3.2805,3.2904,3.2972,3.3006,3.3093,3.313,3.3231,3.3185,3.3221,3.3297,3.3341,3.3444,3.3328,3.3458,3.3462,3.3439,3.3648,3.3675,3.3844,3.3581,3.3585,3.3588,0,3.2559,3.2642,3.283,3.2908,3.295,3.3038,3.3134,3.3217,3.3294,3.3313,3.338,3.338,3.3498,3.3426,3.359,3.351,3.3564,3.3593,3.36,3.3615,3.3535,3.3671,3.3899,3.3925,3.3625,3.3622,3.362,0,3.2691,3.2849,3.2982,3.3024,3.3118,3.3181,3.3223,3.3295,3.3356,3.344,3.348,3.3577,3.3631,3.3707,3.3734,3.3679,3.3896,3.3827,3.3917,3.3917,3.3966,3.3963,3.4208,3.3997,3.3996,3.3996,3.3995,0,3.2885,3.3001,3.3042,3.3125,3.3254,3.3273,3.3402,3.3441,3.3505,3.3596,3.3589,3.3674,3.3703,3.3794,3.3816,3.3949,3.3973,3.3992,3.3997,3.3994,3.3992,3.4032,3.4021,3.4003,3.4001,3.4,3.3999,0,3.3055,3.3087,3.3231,3.3308,3.333,3.3422,3.3489,3.3569,3.3599,3.3714,3.3742,3.3792,3.3898,3.3931,3.406,3.4075,3.423,3.4224,3.4204,3.4205,3.4294,3.4286,3.4575,3.4615,3.4376,3.4378,3.438,0,3.3178,3.3267,3.3352,3.3411,3.3456,3.3551,3.3613,3.3634,3.3699,3.3792,3.3862,3.3966,3.4051,3.4222,3.427,3.4369,3.4366,3.446,3.4381,3.4375,3.4369,3.4365,3.4374,3.4476,3.4478,3.448,3.4482,0,3.3393,3.3404,3.3492,3.3586,3.3659,3.3734,3.3807,3.3856,3.3888,3.3961,3.4069,3.4134,3.4265,3.4369,3.4469,3.4514,3.4505,3.4506,3.4532,3.4532,3.4517,3.4528,3.4247,3.45,3.4498,3.4497,3.4496,3.4495,3.3545,3.3623,3.3695,3.3793,3.385,3.3917,3.3996,3.4036,3.4125,3.4232,3.4239,3.4356,3.4431,3.4563,3.4613,3.4706,3.4679,3.4717,3.4727,3.4737,3.4744,3.45,3.4724,3.4723,3.4723,3.4723,3.4722,0,3.3761,3.3806,3.3896,3.3997,3.4074,3.4055,3.4134,3.4201,3.4303,3.4373,3.4456,3.458,3.4681,3.4736,3.4837,3.4901,3.4899,3.4927,3.4924,3.4934,3.4762,3.473,3.4927,3.4927,3.4926,3.4926,3.4926,3.4926,3.3883,3.4015,3.4034,3.4194,3.4238,3.4351,3.4398,3.4461,3.4516,3.4654,3.4738,3.4772,3.4837,3.4942,3.5034,3.5048,3.5086,3.5118,3.5129,3.4967,3.4946,3.4927,3.4896,3.5125,3.5125,3.5294,3.5295,3.5296]}]]